Regional Weather Roundup
Issued by NWS

Home | Current Version | Previous Version | Graphics & Text | Print | Product List | Glossary Off
Versions: 1 2 3 4 5 6 7 8 9 10 11 12 13 14 15 16 17 18 19 20 21 22 23 24 25 26 27 28 29 30 31 32 33 34 35 36 37 38 39 40 41 42 43 44 45 46 47 48 49 50

000
ASUS43 KMKX 240638
RWRWI

WISCONSIN REGIONAL WEATHER ROUNDUP
NATIONAL WEATHER SERVICE MILWAUKEE/SULLIVAN WI
200 AM CDT SUN MAY 24 2015

NOTE: "FAIR" INDICATES FEW OR NO CLOUDS BELOW 12,000 FEET WITH NO
SIGNIFICANT WEATHER AND/OR OBSTRUCTIONS TO VISIBILITY.

WIZ001-002-006>008-014>016-023>028-240800-
NORTHWEST WISCONSIN

CITY           SKY/WX    TMP DP  RH WIND       PRES   REMARKS
SUPERIOR ARPT  FAIR      51  44  75 CALM      30.13F
ASHLAND        PTCLDY    47  43  86 S3        30.16S
HAYWARD        CLOUDY    52  46  80 N5        30.17F
SIREN          CLOUDY    58  51  79 CALM      30.15F
CUMBERLAND     CLOUDY    55  50  82 CALM      30.17S
RICE LAKE      LGT RAIN  58  52  79 CALM      30.18S
CHETEK         CLOUDY    58  53  84 E5        30.16F
LADYSMITH      CLOUDY    57  51  79 CALM      30.19S
EAU CLAIRE     CLOUDY    58  46  64 NE5       30.14F
MENOMONIE      CLOUDY    59  47  63 CALM      30.14F
NEW RICHMOND   CLOUDY    60  47  62 NE5       30.14F
OSCEOLA        CLOUDY    61  49  65 NE6       30.16F
$$

WIZ003>005-009-010-017-018-240800-
NORTH CENTRAL WISCONSIN

CITY           SKY/WX    TMP DP  RH WIND       PRES   REMARKS
MANITOWISH WTR MOCLDY    51  47  86 CALM      30.19S
ARBOR VITAE    CLOUDY    57  46  66 CALM      30.19S
WOODRUFF       CLOUDY    57  46  66 CALM      30.19S
RHINELANDER    CLOUDY    57  46  66 CALM      30.20S
EAGLE RIVER    CLOUDY    56  41  57 CALM      30.18S
LAND O LAKES   CLOUDY    54  44  69 CALM      30.20S
PHILLIPS       CLOUDY    56  50  81 CALM      30.18F
TOMAHAWK       CLOUDY    52  46  80 CALM      30.20R
MEDFORD        CLOUDY    56  52  87 CALM      30.17F
MERRILL        CLOUDY    55  51  86 CALM      30.19F
$$

WIZ029-030-035-036-043>047-240800-
CENTRAL WISCONSIN

CITY           SKY/WX    TMP DP  RH WIND       PRES   REMARKS
WAUSAU         LGT RAIN  60  49  66 N3        30.17S
MOSINEE        CLOUDY    61  43  51 NE3       30.18F
MARSHFIELD     CLOUDY    62  45  53 E3        30.17F
STEVENS POINT  CLOUDY    56  49  77 CALM      30.18S
WAUPACA        MOCLDY    59  49  69 CALM      30.17F
WAUTOMA        MOCLDY    57  51  80 CALM      30.17F
WISC RAPIDS    CLOUDY    60  45  57 CALM      30.17F
CAMP DOUGLAS   PTCLDY    51  51 100 E5        30.14F
$$

WIZ011>013-019>022-031-037>040-048>050-240800-
NORTHEAST WISCONSIN

CITY           SKY/WX    TMP DP  RH WIND       PRES   REMARKS
ANTIGO         CLOUDY    57  50  76 CALM      30.20S
SHAWANO        MOCLDY    55  46  72 CALM      30.18S
OCONTO         MOCLDY    55  48  78 CALM      30.17S
STURGEON BAY   CLOUDY    61  39  44 S5        30.20F
GREEN BAY      PTCLDY    62  43  49 S6        30.18S
MANITOWOC      PTCLDY    51  43  74 CALM      30.19F
APPLETON       PTCLDY    59  45  58 S6        30.18F
CLINTONVILLE   PTCLDY    54  46  76 CALM      30.18S
OSHKOSH        PTCLDY    57  44  62 S7        30.17F
$$

WIZ032>034-041-042-053>061-240800-
SOUTHWEST WISCONSIN

CITY           SKY/WX    TMP DP  RH WIND       PRES   REMARKS
LA CROSSE      MOCLDY    61  50  67 CALM      30.12F
SPARTA         PTCLDY    51  47  87 CALM      30.15F
VIROQUA        MOCLDY    62  44  52 SE7       30.15F
BOSCOBEL       PTCLDY    52  49  89 CALM      30.15F
PRAIRIE DU CHI CLOUDY    58  48  71 E3        30.13F
PLATTEVILLE    CLOUDY    63  48  59 E6        30.15S
$$

WIZ056-057-062-063-064-067-068-240800-
SOUTH CENTRAL WISCONSIN

CITY           SKY/WX    TMP DP  RH WIND       PRES   REMARKS
REEDSBURG      CLEAR     53  48  83 CALM      30.16S
BARABOO/DELLS  CLEAR     56  44  64 CALM      30.16F
LONE ROCK      PTCLDY    55  48  77 CALM      30.15F
MINERAL POINT  PTCLDY    63  43  48 SE5       30.15F
MADISON        CLEAR     55  47  74 CALM      30.16F
MIDDLETON      CLEAR     55  46  73 CALM      30.17F
WATERTOWN      CLEAR     56  46  67 CALM      30.17S
MONROE         PTCLDY    64  46  52 S6        30.16F
JANESVILLE     CLEAR     59  45  58 E3        30.16F
$$

WIZ051-052-058>065-066-070>072-240800-
SOUTHEAST WISCONSIN

CITY           SKY/WX    TMP DP  RH WIND       PRES   REMARKS
MILWAUKEE      PTCLDY    56  39  53 CALM      30.19F
WAUKESHA       CLEAR     55  39  54 CALM      30.20S
MILWAUKEE/TIMM CLEAR     54  41  62 CALM      30.20S
RACINE         CLEAR     57  38  48 S5        30.20F
BURLINGTON     CLEAR     50  45  83 CALM      30.18F
KENOSHA        CLEAR     54  41  61 CALM      30.19F
FOND DU LAC    CLEAR     59  42  53 S5        30.18F
SHEBOYGAN      CLEAR     51  40  65 CALM      30.19F
WEST BEND      CLEAR     50  43  76 CALM      30.19F
JUNEAU         CLEAR     56  45  65 E6        30.19F
$$

LSZ147-162-240800-
LAKE SUPERIOR

STATION/POSITION TIME  TEMP    WIND        PRES    WAVE
                       AIR SEA DIR/SP/G            HT/PER
                 (UTC) (F)     (DEG/KT/KT) (MB)    (FT/S)
W MID LAKE BUOY  0550   45 36  220/ 12/ 14   N/A     1
DEVILS ISLAND    0600   62     240/ 16/ 18   N/A
PORT WING        0540   56     150/  2/  5   N/A
SAXON HARBOR     0540   54     190/  4/  7   N/A
$$

LMZ867-665-643>646-240800-
LAKE MICHIGAN

STATION/POSITION TIME  TEMP    WIND        PRES    WAVE
                       AIR SEA DIR/SP/G            HT/PER
                 (UTC) (F)     (DEG/KT/KT) (MB)    (FT/S)
CHAMBERS ISLAND  0500   62     200/  5/  8   N/A
N MID LAKE BUOY  0550   43 36  220/ 12/ 12   N/A     2/ 4
NORTHPORT PIER   0500   65     200/  5/ 11   N/A
SISTER BAY       0517   63     210/  7/  9   N/A
KEWAUNEE LAKESHO 0600   52     180/  4/  6   N/A
SHEBOYGAN LAKESH 0600   57     180/  6/  6   N/A
PORT WASHINGTON  0540   53        CALM       N/A
ATWATER BUOY     0600   48 45   60/  2/  2   N/A
MILWAUKEE LAKESH 0600   52      40/  4/  4   N/A
S MID LAKE BUOY  0550   48 38  160/  8/ 10   N/A     0
$$

TC  - TEMPERATURE IN CELSIUS
VSB - VISIBILITY IN STATUTE MILES
WCI - WIND CHILL INDEX
HX  - HEAT INDEX




USA.gov is the U.S. government's official web portal to all federal, state and local government web resources and services.